Temp
70 74 77 78 70 67 63 65 68 66 66 69 72 70 70 63 66 62 66 67 68 68 71 72 72 73 73 73 74 74 75 76 76 75 75 75 75 75 75 75 75 75 76 77 77 77 76 75 74
74 76 78 72 66 63 65 67 66 67 66 70 68 68 66 60 64 62 63 65 68 69 71 72 71 72 72 72 72 72 73 73 74 75 75 75 76 76 75 74 74 75 75 76 76 77 76 74 73
75 76 77 67 60 63 64 67 65 66 68 69 65 66 64 59 66 66 67 67 69 69 72 72 70 71 72 72 71 72 72 73 73 73 75 75 74 74 73 73 73 73 74 75 76 76 75 73 72
78 79 72 67 62 64 65 67 67 66 68 68 67 61 63 67 66 69 68 69 68 67 69 69 70 71 72 71 71 70 71 71 71 72 72 73 73 72 72 71 72 72 72 72 72 72 72 72 71
75 73 66 62 61 64 68 68 69 67 66 66 67 59 59 65 70 71 68 69 65 64 65 68 69 70 71 70 69 69 69 69 70 70 70 70 71 71 70 69 69 69 69 69 69 69 69 69 70
72 69 63 61 61 65 68 69 69 68 66 65 64 62 60 68 68 69 69 65 64 62 62 66 69 69 68 68 67 67 67 67 67 67 68 68 68 68 68 67 67 67 67 67 67 66 66 67 67
69 67 61 58 60 64 67 71 68 65 64 65 68 63 61 64 68 68 67 63 61 62 60 63 67 68 66 66 65 65 65 65 65 64 64 64 65 64 64 65 65 65 65 65 65 64 64 64 65
68 67 59 60 61 63 69 68 67 67 65 68 68 63 60 65 66 67 65 62 60 60 61 63 64 65 65 66 64 63 62 61 62 61 60 60 61 61 62 63 62 62 62 62 62 62 61 61 62
68 65 61 61 62 66 69 67 66 67 65 65 65 65 66 65 65 64 63 62 61 60 62 63 64 64 64 64 62 60 60 59 59 59 58 60 62 62 62 59 59 59 59 59 59 59 58 58 61
69 63 62 66 68 67 68 68 67 65 63 63 62 61 63 64 64 63 63 62 61 60 61 63 62 62 62 64 61 61 60 60 59 58 58 59 58 59 58 57 56 57 56 57 56 56 57 61 65
64 65 65 67 69 69 68 66 66 65 62 66 64 59 61 63 63 63 62 62 60 60 61 61 59 60 62 61 62 62 60 59 59 57 58 57 58 58 58 58 58 58 56 59 59 60 61 59 61
62 65 66 68 66 67 67 66 64 64 68 65 67 63 62 62 62 62 60 60 60 60 60 60 60 59 59 61 61 61 60 59 58 56 55 56 57 56 55 56 56 56 57 56 57 58 57 57 58
62 64 66 67 67 66 64 65 67 66 67 63 63 61 61 61 61 61 60 60 60 58 58 58 59 59 58 58 59 58 57 57 56 57 55 56 55 54 55 54 55 55 56 55 56 56 56 57 57
63 63 64 65 67 67 66 63 62 67 62 61 61 61 61 61 60 58 58 57 58 58 58 58 58 58 59 57 57 56 56 56 56 55 54 53 54 53 53 53 54 54 54 55 55 54 55 56 56
63 59 63 63 64 63 66 61 61 65 62 60 60 60 60 60 59 59 59 57 58 59 58 57 57 58 57 56 57 56 56 56 55 54 52 52 52 52 52 52 52 52 53 53 54 53 55 56 56
59 57 54 62 63 61 64 58 62 62 61 60 59 59 58 58 60 58 58 58 58 59 58 59 59 57 56 55 56 56 55 54 54 53 53 51 51 51 51 51 51 51 52 52 52 52 53 53 54
54 52 50 56 62 62 62 58 62 59 59 58 57 57 56 54 55 56 57 57 58 58 57 56 56 55 55 54 55 54 53 53 53 53 52 50 50 50 51 50 50 50 50 50 50 51 50 50 51
51 50 51 50 59 59 56 58 63 58 58 58 57 56 55 55 55 55 55 56 57 56 56 55 55 54 54 54 53 53 53 52 52 52 51 50 50 49 50 49 48 49 49 49 49 48 51 49 49
53 50 50 53 58 55 55 56 61 60 55 55 55 55 55 54 54 54 53 53 53 53 54 54 53 53 54 54 53 52 50 50 50 50 49 49 48 48 47 48 48 48 47 47 47 48 47 49 49
51 49 49 53 56 55 55 55 60 57 58 58 57 55 55 51 50 50 50 51 52 52 53 53 53 53 54 55 53 52 50 49 49 49 48 47 47 46 47 46 46 45 46 46 46 46 46 48 47
51 48 49 50 55 56 53 53 54 58 56 56 58 57 55 53 50 49 49 50 51 51 51 52 52 53 53 52 51 49 49 49 48 47 47 46 46 45 44 44 44 44 45 44 44 44 43 44 46
46 53 52 50 49 45 52 44 52 57 56 54 54 52 53 53 52 50 49 49 50 50 50 51 51 52 51 51 50 50 51 47 47 46 45 45 44 44 44 43 43 43 44 43 44 44 43 43 41
49 53 51 51 49 46 47 45 52 53 53 52 52 51 51 51 51 50 50 52 51 49 50 51 51 51 50 51 51 49 47 46 46 45 43 43 43 42 42 42 42 42 43 42 42 42 42 41 41
55 52 49 47 46 38 46 46 50 51 51 52 51 49 48 48 48 48 51 51 49 49 49 49 49 49 49 49 48 47 45 44 44 44 43 42 42 42 41 41 41 42 42 41 42 41 40 40 40
53 47 38 36 34 35 43 42 49 51 50 49 48 48 46 47 46 47 48 47 46 46 47 47 49 47 47 47 46 46 45 44 43 42 42 41 41 40 39 40 40 41 41 41 40 40 39 39 38
48 48 38 29 32 37 42 39 49 49 47 46 45 47 45 45 46 48 50 49 46 46 47 47 47 46 46 45 44 44 44 43 43 42 42 41 39 39 39 39 40 39 40 39 39 38 38 38 38
46 42 52 41 42 35 43 46 52 47 47 46 44 43 43 44 45 47 49 46 46 46 45 45 45 45 44 43 43 42 42 42 40 40 40 40 40 39 39 39 39 39 39 38 38 37 37 37 37
51 53 40 40 30 28 38 38 44 47 48 48 41 43 42 43 44 46 44 44 45 45 43 44 44 43 43 43 43 43 41 41 40 40 38 38 38 38 38 38 38 38 38 38 38 37 37 37 37
47 45 44 44 38 29 28 37 45 46 48 49 49 41 43 41 43 43 35 38 41 42 42 41 42 41 42 42 42 41 40 40 40 38 38 37 37 38 38 38 38 37 37 38 37 36 36 35 36
49 44 43 37 34 33 30 33 49 47 48 49 48 45 42 43 41 41 39 35 33 33 37 38 40 40 41 41 41 40 40 39 38 37 37 37 37 37 37 37 37 37 36 37 36 35 35 34 34
MSLP
1011.12 1010.94 1010.87 1010.70 1011.18 1010.58 1009.87 1009.84 1009.81 1009.89 1010.35 1010.76 1010.89 1011.11 1011.80 1013.21 1013.80 1015.59 1016.49 1016.65 1016.78 1016.93 1016.90 1016.84 1016.91 1016.89 1016.78 1016.72 1016.62 1016.51 1016.38 1016.32 1016.28 1016.36 1016.38 1016.33 1016.40 1016.30 1016.32 1016.24 1016.38 1016.41 1016.34 1016.39 1016.25 1016.18 1016.25 1016.26 1016.34
1010.87 1010.78 1010.61 1010.57 1010.48 1009.88 1009.67 1009.82 1009.82 1010.24 1010.94 1011.30 1011.70 1012.08 1012.53 1013.99 1014.76 1015.77 1016.43 1016.90 1016.93 1016.89 1016.91 1016.88 1016.91 1016.85 1016.91 1016.93 1016.98 1016.98 1016.81 1016.64 1016.56 1016.53 1016.46 1016.35 1016.39 1016.39 1016.37 1016.38 1016.44 1016.37 1016.43 1016.41 1016.42 1016.32 1016.28 1016.29 1016.34
1010.70 1010.73 1010.54 1010.57 1010.50 1009.66 1009.60 1009.80 1010.12 1010.85 1011.29 1011.46 1012.26 1013.11 1013.67 1014.54 1015.13 1015.72 1016.48 1016.87 1016.88 1016.91 1017.01 1017.04 1016.96 1016.95 1017.05 1017.10 1017.22 1017.35 1017.15 1016.96 1016.89 1016.98 1016.94 1016.69 1016.73 1016.86 1016.87 1016.84 1016.70 1016.64 1016.61 1016.61 1016.55 1016.39 1016.39 1016.38 1016.39
1010.45 1010.67 1011.28 1010.61 1010.08 1009.98 1009.90 1009.97 1010.41 1010.87 1011.39 1011.86 1012.42 1013.49 1014.67 1015.30 1015.29 1015.69 1016.46 1016.66 1016.99 1017.23 1017.24 1017.29 1017.05 1017.39 1017.37 1017.35 1017.47 1017.69 1017.60 1017.45 1017.34 1017.32 1017.26 1017.17 1017.26 1017.43 1017.46 1017.32 1017.09 1017.06 1016.91 1016.79 1016.72 1016.69 1016.50 1016.42 1016.39
1010.72 1010.95 1010.81 1010.48 1010.28 1010.09 1010.07 1010.23 1010.57 1010.79 1011.39 1012.01 1012.51 1013.70 1014.82 1015.55 1015.73 1016.07 1016.50 1016.83 1017.18 1017.54 1017.77 1017.76 1017.40 1017.80 1017.80 1017.76 1018.02 1018.18 1018.10 1018.05 1017.79 1017.85 1017.86 1017.82 1017.72 1017.78 1017.76 1017.63 1017.48 1017.38 1017.29 1017.16 1017.07 1017.05 1016.87 1016.65 1016.47
1010.76 1011.23 1010.88 1010.35 1010.32 1010.25 1010.17 1010.34 1010.72 1011.03 1011.61 1012.25 1012.74 1013.67 1014.93 1015.66 1015.89 1016.30 1016.86 1017.26 1017.54 1017.80 1017.99 1017.66 1017.85 1018.11 1018.23 1018.26 1018.50 1018.60 1018.49 1018.59 1018.46 1018.47 1018.41 1018.41 1018.31 1018.41 1018.45 1018.29 1018.06 1017.94 1017.72 1017.52 1017.35 1017.24 1017.17 1017.01 1016.95
1010.74 1011.04 1010.89 1010.69 1010.45 1010.27 1010.34 1010.72 1011.03 1011.56 1012.04 1012.47 1012.87 1013.61 1015.15 1015.83 1016.42 1016.78 1017.42 1017.72 1018.09 1018.11 1018.12 1018.10 1018.24 1018.33 1018.57 1018.56 1018.79 1018.93 1018.90 1018.88 1018.93 1018.92 1018.91 1018.91 1018.75 1018.65 1018.70 1018.68 1018.59 1018.51 1018.36 1018.22 1017.97 1017.71 1017.47 1017.24 1017.01
1011.18 1011.15 1011.11 1010.81 1010.51 1010.31 1010.51 1010.95 1011.61 1011.90 1012.40 1012.95 1013.26 1013.49 1014.58 1015.45 1016.50 1017.17 1017.84 1018.09 1018.49 1018.59 1018.66 1018.86 1019.10 1019.03 1018.96 1018.92 1019.27 1019.42 1019.44 1019.67 1019.58 1019.72 1019.70 1019.61 1019.40 1019.29 1019.13 1019.03 1018.95 1018.82 1018.60 1018.54 1018.32 1018.06 1017.87 1017.60 1017.41
1011.39 1011.16 1010.93 1010.66 1010.57 1010.38 1010.74 1011.00 1011.82 1012.34 1012.56 1013.08 1013.45 1013.97 1014.43 1015.49 1016.51 1017.12 1017.71 1018.18 1018.54 1018.93 1019.16 1019.47 1019.47 1019.53 1019.49 1019.72 1020.12 1020.09 1020.04 1019.89 1019.91 1020.02 1020.10 1019.78 1019.68 1019.64 1019.53 1019.77 1019.58 1019.37 1019.28 1018.97 1018.63 1018.33 1018.02 1017.68 1017.46
1011.16 1011.25 1010.92 1010.84 1010.63 1010.56 1010.88 1011.14 1011.67 1012.19 1012.69 1013.14 1013.75 1014.60 1015.17 1015.85 1016.26 1016.85 1017.38 1018.09 1018.77 1019.15 1019.41 1019.59 1019.73 1019.80 1019.87 1020.04 1020.38 1020.44 1020.44 1020.43 1020.47 1020.28 1020.17 1020.09 1020.31 1020.42 1020.41 1020.38 1020.25 1019.98 1019.78 1019.41 1019.24 1018.78 1018.25 1017.62 1017.35
1011.61 1011.00 1010.92 1010.84 1010.71 1010.70 1010.86 1011.34 1011.90 1012.14 1012.49 1012.48 1013.19 1014.47 1015.28 1015.74 1016.34 1016.97 1017.68 1018.16 1018.89 1019.43 1019.68 1019.83 1020.08 1020.13 1019.92 1020.09 1020.33 1020.39 1020.65 1020.92 1021.14 1021.13 1020.86 1020.73 1020.55 1020.61 1020.50 1020.51 1020.49 1020.42 1020.24 1019.68 1019.38 1018.97 1018.73 1018.46 1017.91
1012.30 1011.30 1011.03 1010.81 1010.99 1010.96 1010.96 1011.33 1011.70 1012.13 1011.73 1012.36 1012.90 1014.11 1015.24 1015.79 1016.42 1017.07 1017.75 1018.35 1018.92 1019.45 1019.78 1020.02 1020.11 1020.24 1020.52 1020.51 1020.60 1020.76 1020.93 1021.17 1021.28 1021.56 1021.62 1021.33 1021.13 1021.11 1021.10 1021.14 1021.10 1020.86 1020.73 1020.57 1020.24 1019.66 1019.20 1018.89 1018.63
1012.29 1011.83 1011.53 1011.09 1010.96 1010.96 1011.31 1011.21 1011.30 1011.26 1011.66 1012.34 1013.08 1014.04 1014.86 1015.55 1016.41 1017.31 1018.07 1018.76 1019.24 1019.57 1020.00 1020.26 1020.37 1020.62 1020.78 1020.85 1021.14 1021.35 1021.59 1021.73 1021.86 1021.80 1022.03 1021.92 1021.77 1021.79 1021.73 1021.61 1021.46 1021.41 1021.27 1020.95 1020.54 1020.05 1019.53 1019.08 1018.58
1012.58 1012.17 1011.64 1011.23 1010.85 1010.83 1011.13 1011.52 1012.06 1011.33 1011.95 1012.58 1013.54 1014.26 1014.95 1015.58 1016.45 1017.46 1018.12 1018.66 1019.18 1019.57 1019.92 1020.24 1020.48 1020.80 1021.03 1021.21 1021.48 1021.73 1021.95 1022.08 1022.19 1022.46 1022.58 1022.46 1022.29 1022.30 1022.19 1021.94 1021.79 1021.68 1021.60 1021.38 1020.95 1020.56 1019.84 1019.26 1018.88
1012.55 1012.20 1011.61 1011.31 1011.22 1011.00 1010.88 1011.62 1011.48 1011.54 1012.36 1012.74 1013.57 1014.57 1015.37 1016.02 1016.85 1017.31 1017.98 1018.59 1019.09 1019.51 1019.93 1020.22 1020.50 1020.84 1021.12 1021.54 1021.79 1022.07 1022.25 1022.47 1022.68 1023.02 1023.23 1023.15 1022.95 1022.89 1022.63 1022.35 1022.14 1022.11 1022.00 1021.80 1021.26 1020.69 1020.12 1019.50 1018.95
1012.61 1012.62 1011.94 1011.48 1011.20 1011.42 1011.28 1010.90 1011.22 1011.66 1012.19 1013.08 1014.18 1014.93 1015.72 1016.42 1016.99 1017.69 1018.33 1018.78 1019.22 1019.54 1019.85 1020.24 1020.48 1020.95 1021.35 1021.73 1021.99 1022.33 1022.75 1022.91 1023.23 1023.49 1023.55 1023.61 1023.37 1023.16 1022.87 1022.63 1022.57 1022.46 1022.23 1021.94 1021.55 1021.11 1020.35 1019.70 1019.27
1012.83 1012.42 1012.29 1011.70 1011.45 1011.30 1011.27 1010.91 1011.04 1011.69 1012.32 1013.02 1013.90 1014.82 1015.73 1016.65 1017.44 1018.01 1018.62 1019.03 1019.35 1019.69 1020.11 1020.54 1020.85 1021.20 1021.51 1021.85 1022.23 1022.67 1023.09 1023.25 1023.58 1023.85 1023.96 1023.95 1023.73 1023.65 1023.34 1023.09 1022.99 1022.79 1022.27 1022.07 1021.97 1021.46 1020.98 1020.22 1019.71
1012.55 1012.53 1012.35 1012.09 1011.71 1011.40 1011.52 1011.12 1010.93 1011.63 1012.19 1012.78 1013.65 1014.49 1015.31 1016.20 1016.97 1017.95 1018.75 1019.29 1019.72 1020.11 1020.52 1020.71 1021.03 1021.50 1021.82 1022.08 1022.47 1022.82 1023.25 1023.64 1023.87 1024.21 1024.43 1024.25 1024.07 1024.07 1023.80 1023.57 1023.47 1023.17 1022.70 1022.39 1022.13 1021.78 1021.44 1020.98 1020.04
1012.68 1012.72 1012.46 1012.01 1011.75 1011.75 1010.98 1010.84 1010.87 1011.53 1012.34 1012.77 1013.33 1014.15 1014.92 1015.77 1017.05 1018.06 1018.88 1019.50 1019.97 1020.42 1020.64 1020.92 1021.19 1021.62 1021.84 1022.10 1022.51 1022.94 1023.37 1023.89 1024.20 1024.57 1024.79 1024.63 1024.53 1024.48 1024.41 1024.05 1023.66 1023.45 1023.26 1023.01 1022.72 1022.23 1021.63 1021.07 1020.48
1013.28 1013.04 1012.60 1012.10 1011.63 1011.58 1010.80 1010.38 1010.50 1011.09 1011.41 1011.83 1012.48 1013.54 1014.55 1016.09 1017.24 1018.23 1018.99 1019.60 1019.95 1020.25 1020.70 1021.03 1021.26 1021.64 1021.91 1022.16 1022.57 1023.00 1023.61 1024.23 1024.51 1024.88 1025.12 1025.14 1024.95 1024.82 1024.73 1024.69 1024.47 1024.25 1023.72 1023.54 1023.07 1022.84 1022.27 1021.87 1021.45
1013.09 1012.90 1012.63 1012.48 1012.01 1011.47 1011.07 1009.87 1010.05 1010.12 1010.90 1011.50 1012.29 1013.28 1014.48 1015.20 1016.59 1017.95 1018.89 1019.53 1020.07 1020.46 1020.83 1021.12 1021.56 1021.83 1022.05 1022.37 1022.77 1023.34 1023.82 1024.19 1024.57 1024.86 1025.03 1025.23 1025.30 1025.25 1025.17 1025.14 1024.98 1024.56 1024.22 1024.10 1023.70 1023.47 1023.35 1022.63 1022.41
1012.74 1012.64 1012.26 1012.17 1012.36 1011.63 1011.54 1009.49 1009.88 1010.17 1010.57 1011.35 1012.32 1013.37 1014.20 1015.28 1016.68 1017.77 1018.75 1019.55 1020.09 1020.67 1021.24 1021.54 1021.96 1022.17 1022.35 1022.55 1022.82 1023.03 1023.19 1023.59 1024.64 1025.19 1025.49 1025.60 1025.63 1025.62 1025.59 1025.70 1025.45 1025.01 1024.68 1024.58 1024.44 1024.13 1023.81 1023.58 1023.28
1012.82 1012.58 1012.56 1012.22 1012.09 1012.01 1011.57 1011.26 1009.68 1010.52 1010.80 1011.65 1012.58 1013.47 1014.54 1015.53 1016.49 1017.43 1018.46 1019.12 1019.99 1020.81 1021.27 1021.81 1022.22 1022.45 1022.71 1022.87 1023.11 1023.32 1023.66 1024.32 1024.83 1025.30 1025.66 1025.68 1025.87 1025.97 1025.87 1025.90 1025.82 1025.64 1025.16 1025.19 1024.90 1024.98 1024.63 1024.29 1024.12
1012.75 1012.58 1012.95 1013.04 1012.72 1012.05 1011.35 1011.26 1008.97 1010.42 1011.29 1012.18 1013.22 1014.07 1014.89 1015.79 1016.72 1017.78 1018.39 1019.19 1020.23 1020.99 1021.48 1022.01 1022.27 1022.63 1022.94 1023.28 1023.68 1023.87 1024.22 1024.72 1025.05 1025.42 1025.67 1026.08 1026.22 1026.18 1026.31 1026.46 1026.30 1025.90 1025.61 1025.75 1025.48 1025.52 1025.35 1025.02 1024.79
1012.76 1013.11 1012.88 1012.83 1012.89 1011.80 1011.76 1011.56 1010.00 1011.21 1011.98 1012.76 1013.53 1014.55 1015.49 1016.37 1017.19 1017.82 1018.37 1019.29 1020.25 1021.11 1021.70 1022.25 1022.46 1022.83 1023.36 1023.63 1023.94 1024.32 1024.76 1025.04 1025.38 1025.76 1026.20 1026.27 1026.48 1026.68 1026.80 1026.73 1026.65 1026.34 1026.30 1026.38 1026.11 1026.01 1025.79 1025.54 1025.35
1012.45 1012.91 1012.63 1012.13 1012.07 1012.20 1012.47 1011.29 1010.69 1011.69 1012.73 1013.59 1014.35 1014.89 1015.85 1016.66 1017.31 1017.80 1018.41 1019.33 1020.31 1021.14 1021.69 1022.18 1022.59 1023.11 1023.54 1023.91 1024.35 1024.84 1025.18 1025.37 1025.76 1026.31 1026.43 1026.52 1026.76 1027.22 1027.33 1027.18 1027.12 1026.97 1026.86 1026.80 1026.66 1026.45 1026.26 1026.07 1025.94
1012.38 1012.37 1011.96 1012.63 1012.69 1012.97 1011.98 1011.51 1011.41 1011.98 1012.73 1013.48 1014.30 1015.14 1015.84 1016.59 1017.25 1017.76 1018.54 1019.58 1020.30 1020.96 1021.63 1022.19 1022.70 1023.18 1023.65 1024.18 1024.73 1025.18 1025.50 1025.98 1026.37 1026.45 1026.51 1026.92 1027.29 1027.46 1027.60 1027.58 1027.36 1027.30 1027.21 1027.16 1026.99 1026.83 1026.75 1026.57 1026.45
1012.01 1012.11 1012.37 1012.89 1012.94 1012.75 1011.90 1011.97 1011.65 1011.81 1012.19 1013.14 1014.07 1014.88 1015.78 1016.59 1017.37 1017.99 1018.71 1019.54 1020.25 1021.05 1021.78 1022.39 1022.73 1023.12 1023.80 1024.40 1024.88 1025.43 1025.92 1026.32 1026.54 1026.46 1026.81 1027.39 1027.75 1027.79 1027.74 1027.68 1027.56 1027.49 1027.44 1027.44 1027.33 1027.19 1027.18 1026.95 1026.90
1012.46 1012.26 1012.58 1012.96 1013.70 1013.79 1013.24 1012.32 1012.20 1012.32 1012.55 1012.90 1013.46 1014.47 1015.36 1016.23 1017.09 1018.12 1019.18 1019.90 1020.50 1021.31 1021.93 1022.38 1022.85 1023.12 1023.78 1024.37 1025.03 1025.68 1026.13 1026.38 1026.65 1026.89 1027.29 1027.73 1027.98 1028.02 1027.87 1027.70 1027.71 1027.79 1027.73 1027.75 1027.52 1027.54 1027.56 1027.44 1027.37
1013.00 1013.02 1013.21 1013.41 1014.14 1014.62 1014.60 1012.88 1012.13 1012.55 1012.72 1012.88 1013.22 1013.80 1014.73 1015.76 1016.84 1017.75 1018.86 1019.92 1020.71 1021.29 1022.00 1022.48 1022.86 1023.22 1023.80 1024.34 1025.04 1025.57 1026.15 1026.51 1026.86 1027.34 1027.55 1028.00 1028.13 1028.06 1027.86 1027.99 1027.99 1028.02 1028.13 1028.20 1028.03 1028.03 1028.09 1027.92 1027.79
Wind_Speed
5 2 2 2 3 0 0 0 2 2 3 3 5 2 8 6 2 1 4 4 5 5 4 5 7 8 10 12 12 12 10 8 7 8 7 7 6 6 6 7 5 5 5 4 4 3 4 5 5
2 1 2 3 1 2 1 1 4 1 4 8 6 4 4 5 3 7 5 3 6 6 4 5 9 10 13 14 13 11 10 10 10 9 10 9 7 7 8 9 8 6 4 4 3 3 4 4 3
3 2 0 3 2 2 1 2 3 7 3 3 5 6 3 6 6 6 8 8 8 8 7 8 10 9 13 14 14 13 13 12 11 10 9 11 14 15 14 12 12 11 10 10 8 7 6 5 3
2 1 3 1 3 1 2 2 8 8 4 4 3 7 4 2 4 7 12 10 10 7 8 9 14 10 13 16 15 14 14 14 14 14 12 15 15 14 14 13 12 11 12 13 13 13 11 7 7
3 2 2 0 2 3 2 2 8 4 4 4 1 5 4 2 9 13 12 10 9 7 7 9 15 12 15 17 17 15 15 14 15 14 14 14 14 13 14 14 14 14 13 13 13 13 14 13 9
3 1 1 2 2 3 2 3 4 2 4 5 4 7 4 10 12 11 11 10 8 8 7 8 15 15 16 17 16 15 15 15 15 14 14 15 15 15 15 15 15 14 13 13 12 13 13 13 14
4 2 1 1 2 3 1 2 3 2 3 3 7 6 5 10 10 11 11 10 8 8 8 10 10 13 16 17 16 15 15 15 15 14 14 14 16 16 15 15 15 14 14 14 14 13 13 11 11
4 3 2 2 1 0 1 3 2 3 2 1 2 4 5 13 13 12 11 10 9 9 9 10 9 9 10 11 17 17 17 16 17 16 15 13 15 15 15 12 14 13 13 14 14 14 14 12 11
2 2 2 2 2 2 4 3 2 2 4 1 1 2 2 20 16 13 11 10 9 9 9 8 8 8 9 10 11 13 16 16 14 12 14 11 8 9 11 13 14 15 14 14 13 13 13 12 9
2 1 4 1 2 3 1 2 7 4 4 5 2 7 15 18 16 14 11 9 9 8 8 7 8 8 9 8 9 9 10 10 9 9 9 8 9 9 9 11 13 14 14 12 12 13 11 9 6
0 4 5 4 3 1 2 2 2 5 6 6 6 12 16 18 14 13 10 9 9 8 7 7 8 7 9 8 6 5 5 5 6 11 9 9 7 7 6 5 6 7 11 7 8 9 7 9 6
5 2 3 1 2 0 3 5 3 6 3 3 6 17 17 17 14 12 12 10 10 9 8 8 8 9 8 6 6 7 6 6 7 9 10 7 5 7 7 6 7 7 7 9 9 6 7 7 8
2 4 4 5 8 4 6 6 5 9 4 6 15 18 18 16 14 10 10 9 9 10 8 8 8 8 8 9 7 7 7 7 8 8 10 7 7 7 6 6 6 6 7 7 7 7 7 7 7
4 6 9 7 5 3 6 2 2 3 7 10 14 16 16 16 15 12 11 11 9 10 9 8 9 9 9 8 9 7 7 8 8 8 9 10 7 6 6 6 7 7 7 7 7 8 7 7 7
4 7 7 1 2 2 8 5 9 1 8 12 14 13 13 13 14 13 12 11 11 9 10 9 9 9 10 10 8 7 7 7 8 8 10 10 9 8 7 6 6 7 7 9 7 8 7 7 7
3 0 3 2 3 3 4 5 2 5 13 10 9 10 10 11 12 11 11 11 9 10 9 8 7 9 10 10 8 7 7 7 7 7 7 9 9 9 7 6 7 7 6 7 7 8 8 8 8
1 4 3 5 2 1 3 5 4 5 10 12 11 11 10 10 9 10 11 10 9 9 10 9 9 11 11 10 9 8 9 7 7 6 6 9 10 9 7 7 7 7 6 7 8 7 8 8 9
3 4 3 6 1 3 2 11 8 3 11 13 13 12 13 13 14 13 12 10 9 9 9 9 8 11 11 9 8 7 7 7 6 7 7 9 8 10 8 7 8 7 6 7 8 8 8 9 10
2 4 9 7 8 6 9 9 10 4 8 11 13 14 14 15 11 12 12 11 10 8 10 9 10 10 8 7 6 4 5 5 6 7 9 9 10 10 10 7 7 7 8 8 10 8 9 8 11
6 9 12 9 9 7 9 12 11 8 8 15 16 16 17 13 14 13 13 11 11 10 9 9 9 10 7 5 5 4 5 6 6 6 8 9 9 10 8 8 7 9 7 9 11 11 7 6 10
11 10 11 12 8 5 6 14 9 5 5 2 10 14 14 19 18 16 15 13 9 9 9 8 7 7 6 7 7 8 8 5 4 4 5 7 9 9 9 9 8 7 7 7 9 10 11 7 7
16 12 14 12 6 9 2 11 3 5 5 3 7 10 14 16 14 15 16 13 11 8 7 8 7 7 7 9 8 8 4 5 3 4 5 6 9 9 9 8 8 8 6 9 8 8 8 8 8
6 5 8 6 7 2 5 8 1 2 7 4 4 2 9 12 15 17 17 15 11 9 9 8 8 7 7 6 6 5 7 6 5 4 5 6 7 9 8 8 8 8 7 8 9 9 9 7 6
1 1 4 3 1 8 11 12 8 3 2 4 1 3 6 12 14 15 16 12 11 10 9 9 9 8 7 7 7 8 10 7 5 4 4 4 4 5 8 7 7 8 8 8 7 7 9 8 7
8 4 4 5 4 8 2 7 12 3 3 1 4 2 5 10 13 16 17 14 12 12 10 9 9 9 8 9 9 9 8 7 7 5 4 4 4 5 7 7 7 7 7 7 7 7 8 8 8
7 15 7 6 4 2 1 6 1 2 1 1 1 3 7 10 11 15 17 14 14 13 12 11 10 10 9 9 9 8 8 5 5 5 4 4 5 5 6 6 7 8 8 8 8 7 7 8 7
2 9 13 13 12 9 10 8 7 3 6 4 4 5 9 10 12 15 15 14 15 14 12 12 12 10 9 10 9 8 7 7 6 7 6 5 5 5 6 7 8 8 8 9 8 7 8 7 8
6 3 3 3 6 10 6 5 7 4 6 7 7 10 10 10 12 14 13 14 13 13 11 11 11 12 10 10 8 7 8 7 7 7 7 6 6 6 6 7 8 8 8 8 8 7 9 9 7
3 3 2 3 3 3 4 4 3 3 6 7 8 7 10 12 13 12 8 9 13 12 12 12 11 12 11 10 9 8 8 8 8 7 6 6 6 6 6 7 8 8 8 8 8 10 9 8 8
2 1 1 3 7 5 1 10 3 4 5 5 5 6 7 11 12 13 14 11 10 11 11 12 11 11 11 11 11 10 9 8 8 7 7 6 7 6 7 6 7 8 9 8 9 9 8 9 9
Wind_Direction
315 9 134 88 225 282 18 201 259 198 177 341 109 146 150 47 137 130 121 67 90 82 61 50 66 78 77 67 59 55 53 69 101 126 129 127 125 116 110 94 74 56 51 52 53 58 68 69 64
329 199 92 100 232 195 130 275 253 151 120 119 77 82 76 97 98 119 135 106 99 89 77 66 71 68 77 73 68 66 64 53 44 42 48 58 73 75 66 60 49 35 29 14 2 7 24 60 64
134 23 252 84 122 178 238 352 151 117 138 165 110 37 70 110 114 118 110 127 110 88 81 74 76 72 84 79 72 68 71 77 74 70 54 44 52 54 54 52 52 42 28 9 358 351 351 356 355
67 70 92 228 204 196 244 341 154 144 114 80 111 87 98 3 131 131 134 125 104 85 75 61 77 72 81 77 71 66 66 72 73 75 72 67 66 64 60 55 56 49 45 37 30 16 1 347 340
50 73 64 317 281 269 269 261 170 138 107 104 148 132 91 71 120 127 126 115 103 78 65 73 67 78 78 72 68 66 66 69 73 72 72 72 74 72 70 67 61 53 47 43 40 33 24 12 358
76 79 136 232 258 293 280 186 190 127 132 149 109 132 112 139 136 129 118 104 92 98 82 80 83 85 77 76 73 69 71 68 69 69 69 67 65 59 52 49 49 46 45 43 41 39 33 25 22
106 103 195 216 294 311 323 71 242 102 112 167 137 132 121 163 134 123 108 93 83 83 86 88 95 92 87 81 78 73 69 69 68 69 67 68 66 62 52 46 39 36 34 29 27 27 26 24 21
104 99 144 217 276 90 131 103 43 35 155 83 349 175 171 170 138 117 105 96 81 67 65 76 73 77 80 77 73 69 66 61 59 60 62 64 61 54 53 45 42 38 34 26 22 19 15 14 14
144 97 204 185 182 338 161 146 92 99 138 230 220 327 94 139 134 126 121 107 90 73 69 72 75 75 81 75 71 71 70 69 68 62 56 57 53 48 46 43 35 36 28 25 22 18 16 10 14
98 152 196 246 314 315 80 199 155 170 161 228 219 82 134 140 147 144 143 125 108 95 82 80 82 87 87 82 73 66 60 56 55 59 59 59 52 48 46 40 35 29 22 20 14 15 14 16 9
159 189 185 172 183 267 350 115 145 170 211 228 214 161 156 153 154 147 132 117 109 105 94 90 95 95 98 93 85 73 70 67 55 45 41 51 54 43 41 33 23 14 14 13 3 6 11 8 5
299 229 201 209 119 143 180 137 193 212 210 258 221 159 159 161 156 150 138 132 132 119 103 98 97 100 91 88 78 80 73 69 65 53 42 43 44 42 39 32 22 19 11 2 359 355 358 2 3
250 340 307 293 299 250 138 204 211 227 230 114 139 157 165 161 154 140 128 122 122 110 101 92 98 100 101 93 90 80 74 68 65 60 51 44 45 44 38 37 33 24 9 4 356 350 351 352 1
315 289 286 283 270 235 207 191 249 238 146 145 159 165 165 162 154 136 144 136 130 125 117 117 111 119 114 105 97 90 83 80 68 56 49 49 48 40 36 36 31 22 11 360 352 349 346 349 349
296 306 320 4 312 229 176 225 231 46 172 167 174 168 159 159 156 159 153 145 142 130 127 123 125 130 117 108 100 91 85 75 67 62 52 48 45 43 39 37 30 20 9 358 354 354 351 351 354
307 336 285 175 315 331 251 263 79 196 174 181 178 164 160 161 164 156 152 143 142 136 134 133 131 128 116 112 104 95 86 81 74 66 61 53 50 44 47 41 31 18 12 5 359 358 352 356 355
64 259 239 304 12 81 231 256 180 181 183 181 183 175 168 157 159 159 158 150 149 139 134 127 132 133 127 116 107 99 92 81 72 63 54 51 49 41 40 37 29 17 22 19 4 1 360 353 351
227 229 231 250 228 335 253 257 277 221 198 196 190 181 178 179 175 164 157 151 144 136 134 135 136 137 131 123 114 103 93 81 69 59 52 46 47 39 33 37 29 19 22 20 11 4 2 2 350
188 243 259 262 261 278 256 245 256 224 207 196 198 192 190 185 168 162 155 148 145 145 147 147 143 148 146 137 126 109 92 89 77 67 52 48 44 39 31 30 31 25 26 21 15 358 7 11 2
259 277 276 283 270 216 265 250 252 202 220 213 200 195 189 170 167 164 159 161 167 160 153 150 152 159 161 141 112 107 109 84 78 69 55 45 47 45 42 33 29 27 25 23 24 18 4 16 19
248 248 256 266 305 262 277 267 236 216 233 183 199 198 190 184 175 172 171 171 168 163 156 143 142 162 169 137 123 117 121 124 108 83 72 53 49 48 43 39 34 38 35 28 29 23 18 13 22
274 225 242 248 254 270 314 288 240 222 211 190 181 191 197 192 180 172 168 170 176 159 136 133 136 141 146 153 152 163 153 133 101 85 65 60 49 47 44 38 39 42 45 37 30 31 33 20 19
256 301 255 235 226 278 230 268 263 246 215 166 120 213 197 189 181 174 171 175 167 150 146 136 135 135 147 157 156 138 116 109 113 109 91 68 63 52 48 46 45 44 44 40 40 35 37 40 41
72 55 36 42 49 254 231 228 275 241 266 148 140 17 178 170 168 167 170 163 156 151 145 148 142 126 122 126 126 122 125 131 134 116 75 58 54 52 47 49 47 47 46 37 42 45 43 48 52
260 282 279 238 202 258 354 227 270 222 197 302 316 298 160 165 165 170 173 171 160 157 152 149 145 128 135 129 124 124 127 123 109 102 91 77 61 52 47 50 47 47 48 45 44 47 50 49 50
240 225 231 247 228 322 195 231 234 229 179 204 314 149 160 173 177 181 180 174 164 159 159 154 147 146 142 129 120 118 120 112 106 108 110 83 71 62 60 62 60 59 57 54 56 56 55 52 49
159 216 245 255 262 270 260 264 263 214 254 230 203 183 193 189 186 184 177 175 167 165 163 160 156 148 142 136 134 126 118 119 117 113 95 78 92 95 79 73 70 66 61 55 59 59 58 56 50
216 154 157 186 242 246 242 254 244 244 255 229 230 217 207 200 195 191 182 174 169 166 158 159 159 154 149 143 139 137 130 125 121 112 95 99 100 99 98 86 77 71 65 60 61 62 55 56 50
206 200 156 118 44 242 297 260 231 302 323 265 254 220 206 201 199 186 159 163 166 164 162 161 160 152 152 151 143 139 138 129 126 115 104 107 117 114 102 86 78 69 65 59 62 63 58 57 52
340 24 5 264 223 176 140 266 231 283 291 285 268 229 208 201 195 182 171 163 163 158 164 165 162 163 159 152 152 148 144 139 133 125 112 127 128 113 92 92 85 75 65 57 58 59 54 51 47